#timestamp,LO_Frequency,Hit 
1504249215.6,286047010.6,N
1504249235.4,286047008.9,N
1504249255.2,286047007.8,N
1504249275.1,286047007.9,N
1504249276.0,286047007.9,N
1504249295.8,286047004.6,N
1504249315.6,286047003.2,N
1504249335.5,286047006.6,N
1504249355.3,286047009.4,N
1504249375.1,286047010.6,N
1504249395.8,286047006.8,N
1504249415.7,286047006.9,N
1504249435.5,286047010.0,N
1504249455.3,286047010.9,N
1504249475.2,286047007.6,N
1504249495.9,286047004.4,N
1504249515.7,286047006.7,N
1504249535.6,286047010.6,P
1504249555.4,286046999.2,N
1504249575.2,286046997.0,N
1504249595.1,286046995.9,N
1504249596.0,286046995.9,N
1504249615.8,286046999.3,N
1504249635.6,286047000.1,N
1504249655.5,286046999.3,N
1504249675.3,286046997.5,N
1504249695.1,286046995.6,N
1504249715.9,286046991.7,N
1504249735.7,286046992.6,N
1504249755.9,286046990.3,N
1504249775.7,286046990.3,N
1504249795.5,286046990.7,N
1504249815.3,286046996.4,N
1504249835.2,286046997.3,N
1504249855.0,286046999.3,N
1504249855.9,286046999.3,N
1504249875.7,286046996.9,N
1504249895.6,286046995.8,N
1504249915.4,286046999.1,N
1504249935.2,286047004.3,N
1504249955.1,286047006.0,N
1504249956.0,286047006.0,N
1504249975.8,286047006.0,N
1504249995.6,286047003.9,N
1504250015.5,286047003.8,N
1504250035.3,286047003.8,N
1504250055.1,286047000.9,N
1504250075.9,286046997.0,N
1504250095.7,286046997.9,N
1504250115.5,286046993.8,N
1504250135.4,286046994.3,N
1504250155.2,286046999.2,N
1504250175.0,286046995.1,N
1504250175.9,286046995.1,N
1504250195.7,286046993.0,N
1504250215.6,286046990.3,N
1504250235.4,286046997.7,N
1504250255.2,286046999.9,N
1504250275.1,286046996.8,N
1504250276.0,286046996.8,N
1504250295.8,286046998.6,N
1504250315.6,286046997.3,N
1504250335.5,286046999.5,N
1504250355.3,286046993.9,N
1504250375.1,286046997.6,N
1504250395.9,286046999.2,N
1504250415.7,286046998.2,N
1504250435.5,286046997.3,N
1504250455.4,286046993.6,N
1504250475.2,286046994.7,N
1504250495.0,286046995.4,N
1504250495.9,286046995.4,N
1504250515.8,286046997.7,N
1504250535.6,286046992.1,N
1504250555.4,286046993.1,N
1504250575.3,286046991.3,P
1504250595.1,286046995.8,N
1504250596.0,286046995.8,N
1504250615.8,286046996.0,N
1504250635.7,286046997.5,N
1504250655.5,286046997.6,N
1504250675.3,286046999.4,N
1504250695.1,286047000.6,N
1504250715.9,286047000.6,N
1504250735.7,286046996.8,N
1504250755.1,286046995.3,N
1504250756.0,286046995.3,N
1504250775.8,286046995.4,N
1504250795.6,286046995.1,N
1504250815.5,286046994.2,N
1504250835.3,286047000.5,N
1504250855.1,286047001.4,N
1504250875.9,286047004.4,N
1504250895.7,286047002.1,N
1504250915.5,286047001.1,N
1504250935.4,286046995.3,N
1504250955.2,286046995.5,N
1504250975.0,286046999.6,N
1504250975.9,286046999.6,N
1504250995.8,286047001.4,N
1504251015.6,286046998.1,N
1504251035.4,286046998.3,N
1504251055.3,286047001.4,N
1504251075.1,286047002.3,N
1504251076.0,286047002.3,N
1504251095.8,286047001.3,N
1504251115.7,286047005.7,N
1504251135.5,286047009.0,N
1504251155.3,286047010.7,P
1504251175.2,286047010.9,N
1504251195.9,286047008.1,N
1504251215.7,286047007.2,N
1504251235.6,286047004.5,N
1504251255.4,286047008.3,N
1504251275.2,286047007.6,N
1504251295.0,286047004.7,N
1504251295.9,286047004.7,N
1504251315.8,286047009.2,N
1504251335.6,286047003.1,N
1504251355.4,286047000.9,N
1504251375.3,286046999.2,N
1504251395.1,286047001.0,N
1504251396.0,286047001.0,N
1504251415.8,286047000.7,N
1504251435.7,286047002.1,N
1504251455.5,286047001.6,N
1504251475.3,286046998.5,N
1504251495.2,286047002.7,N
1504251515.9,286047004.8,N
1504251535.7,286047006.1,N
1504251555.6,286047003.8,N
1504251575.4,286047000.3,N
1504251595.2,286046998.5,N
1504251615.0,286047002.7,N
1504251615.9,286047002.7,N
1504251635.8,286047004.7,N
1504251655.6,286047001.7,N
1504251675.4,286046998.3,N
1504251695.3,286047002.7,N
1504251715.1,286047007.3,N
1504251735.8,286047007.7,N
1504251755.7,286047008.0,N
1504251775.5,286047008.2,N
1504251795.3,286047009.2,N
1504251815.2,286047009.3,N
1504251835.9,286047010.4,P
1504251855.0,286047007.1,N
1504251855.9,286047007.1,N
1504251875.8,286047008.1,P
1504251895.6,286047000.8,N
1504251915.5,286047001.1,N
1504251935.3,286046993.6,N
1504251955.1,286046990.9,N
1504251975.9,286046988.5,N
1504251995.7,286046990.8,N
1504252015.5,286046994.4,N
1504252035.3,286046991.2,N
1504252055.2,286046988.5,N
1504252075.0,286046993.0,N
1504252075.9,286046993.0,N
1504252095.7,286046994.8,N
1504252115.6,286046991.8,N
1504252135.4,286046993.1,N
1504252155.2,286046993.5,N
1504252175.1,286046993.5,N
1504252176.0,286046993.5,N
1504252195.8,286046993.4,N
1504252215.6,286046997.4,N
1504252235.5,286046994.4,N
1504252255.3,286046988.5,N
1504252275.1,286046989.4,N
1504252295.9,286046991.5,N
1504252315.7,286046996.4,N
1504252335.5,286046993.2,N
1504252355.3,286046987.4,N
1504252375.2,286046991.2,N
1504252395.0,286046989.8,N
1504252395.9,286046989.8,N
1504252415.7,286046989.9,N
1504252435.6,286046988.2,P
1504252455.4,286046998.5,N
1504252475.2,286046999.0,N
1504252495.1,286047001.1,N
1504252496.0,286047001.1,N
1504252515.8,286047002.0,N
1504252535.6,286047003.2,N
1504252555.5,286047003.6,N
1504252575.3,286047001.3,N
1504252595.1,286047002.7,N
1504252615.9,286047003.0,N
1504252635.7,286047003.5,N
1504252655.5,286047005.2,N
1504252675.4,286047003.2,N
1504252695.2,286047003.8,N
1504252715.0,286047003.5,N
1504252715.9,286047003.5,N
1504252735.8,286047005.7,N
1504252755.6,286047003.0,N
1504252775.4,286047005.5,N
1504252795.2,286047001.3,N
